Location: ????
(55.2778°N, 39.2433°E)
Time: 20:04:25
(UTC+00:00)

Cosmos 1371 Rocket - Visible Passes

Search period start: 12 July 2024 00:00
Search period end: 22 July 2024 00:00
Orbit: 751 x 787 km, 74.0° (Epoch: 11 July)

Date Brightness Start Highest point End Pass type
(mag) Time Alt. Az. Time Alt. Az. Time Alt. Az.
12 Jul 6.3 20:52:26 10° ESE 20:53:48 11° E 20:55:10 10° ENE visible
12 Jul 4.4 22:30:33 16° S 22:34:45 56° ESE 22:40:00 10° NNE visible
13 Jul 4.9 21:54:31 16° SSE 21:58:14 38° ESE 22:03:09 10° NE visible
13 Jul 4.7 23:35:04 10° SW 23:40:16 49° NW 23:45:28 10° NNE visible
14 Jul 5.4 21:18:27 14° SSE 21:21:48 26° E 21:26:09 10° NE visible
14 Jul 4.2 22:58:44 13° SW 23:03:28 69° WNW 23:08:50 10° NNE visible
15 Jul 5.9 20:42:22 11° SE 20:45:28 17° E 20:48:51 10° NE visible
15 Jul 4.1 22:22:39 17° SSW 22:26:47 83° ESE 22:32:09 10° NNE visible
16 Jul 5.7 00:05:01 10° W 00:09:32 27° NW 00:14:03 10° NNE visible
16 Jul 6.2 20:07:50 10° ESE 20:09:13 11° E 20:10:36 10° ENE visible
16 Jul 4.3 21:46:32 20° S 21:50:10 57° ESE 21:55:24 10° NNE visible
16 Jul 5.3 23:27:39 10° WSW 23:32:33 35° NW 23:37:28 10° NNE visible
17 Jul 4.8 21:10:24 19° SSE 21:13:39 38° ESE 21:18:33 10° NE visible
17 Jul 4.8 22:50:41 11° SW 22:55:41 48° NW 23:00:53 10° NNE visible
18 Jul 5.3 20:34:14 16° SE 20:37:13 26° E 20:41:34 10° NE visible
18 Jul 4.3 22:14:31 15° SW 22:18:54 69° WNW 22:24:14 10° NNE visible
18 Jul 6.1 23:58:00 10° W 00:02:00 21° NW 00:05:59 10° NNE visible
19 Jul 5.8 19:58:02 12° SE 20:00:52 17° E 20:04:15 10° NE visible
19 Jul 4.0 21:38:19 19° SSW 21:42:11 83° ESE 21:47:33 10° NNE visible
19 Jul 5.7 23:20:27 10° W 23:24:56 27° NW 23:29:26 10° NNE visible
20 Jul 6.1 19:23:13 10° ESE 19:24:37 11° E 19:26:01 10° ENE visible
20 Jul 4.3 21:02:05 21° S 21:05:35 57° ESE 21:10:48 10° NNE visible
20 Jul 5.3 22:43:04 10° WSW 22:47:58 35° NW 22:52:52 10° NNE visible
21 Jul 4.7 20:25:50 19° SSE 20:29:03 38° ESE 20:33:57 10° NE visible
21 Jul 4.8 22:06:05 11° SW 22:11:06 48° NW 22:16:16 10° NNE visible
21 Jul 6.4 23:51:11 10° WNW 23:54:32 17° NNW 23:57:53 10° N visible
